TimeEST,TemperatureF,Dew PointF,Humidity,Sea Level PressureIn,VisibilityMPH,Wind Direction,Wind SpeedMPH,Gust SpeedMPH,PrecipitationIn,Events,Conditions,WindDirDegrees,DateUTC
12:15 AM,22.8,13.1,66,30.10,10.0,Calm,Calm,-,N/A,,Clear,0,2013-03-05 05:15:00
12:36 AM,22.1,13.1,68,30.09,10.0,Calm,Calm,-,N/A,,Clear,0,2013-03-05 05:36:00
12:55 AM,21.2,12.9,70,30.09,10.0,East,3.5,-,N/A,,Clear,80,2013-03-05 05:55:00
1:16 AM,22.5,13.1,67,30.09,10.0,East,3.5,-,N/A,,Clear,100,2013-03-05 06:16:00
1:35 AM,22.8,13.1,66,30.09,10.0,East,4.6,-,N/A,,Clear,100,2013-03-05 06:35:00
1:55 AM,23.0,13.1,66,30.08,10.0,East,4.6,-,N/A,,Clear,90,2013-03-05 06:55:00
2:16 AM,22.8,13.1,66,30.08,10.0,East,5.8,-,N/A,,Clear,100,2013-03-05 07:16:00
2:35 AM,23.0,13.5,67,30.07,10.0,East,4.6,-,N/A,,Clear,90,2013-03-05 07:35:00
2:55 AM,22.8,13.6,68,30.07,10.0,ESE,4.6,-,N/A,,Clear,110,2013-03-05 07:55:00
3:16 AM,22.5,13.5,68,30.07,10.0,East,4.6,-,N/A,,Clear,100,2013-03-05 08:16:00
3:35 AM,21.9,13.5,70,30.06,10.0,East,4.6,-,N/A,,Clear,90,2013-03-05 08:35:00
3:55 AM,21.2,13.3,72,30.06,10.0,East,4.6,-,N/A,,Clear,80,2013-03-05 08:55:00
4:16 AM,20.8,13.5,73,30.05,10.0,ENE,4.6,-,N/A,,Clear,70,2013-03-05 09:16:00
4:35 AM,20.8,13.5,73,30.04,10.0,East,5.8,-,N/A,,Clear,90,2013-03-05 09:35:00
4:55 AM,21.2,13.6,73,30.03,10.0,East,6.9,-,N/A,,Clear,90,2013-03-05 09:55:00
5:16 AM,21.2,13.6,73,30.03,10.0,East,5.8,-,N/A,,Clear,90,2013-03-05 10:16:00
5:35 AM,21.0,13.6,73,30.03,10.0,East,4.6,-,N/A,,Clear,90,2013-03-05 10:35:00
5:55 AM,20.5,13.8,75,30.03,10.0,East,6.9,-,N/A,,Clear,80,2013-03-05 10:55:00
6:16 AM,20.7,14.2,76,30.03,10.0,East,5.8,-,N/A,,Clear,100,2013-03-05 11:16:00
6:35 AM,20.3,14.7,79,30.03,10.0,East,5.8,-,N/A,,Clear,100,2013-03-05 11:35:00
6:55 AM,19.9,14.9,81,30.03,10.0,East,6.9,-,N/A,,Clear,80,2013-03-05 11:55:00
7:16 AM,19.8,15.6,84,30.03,10.0,East,5.8,-,N/A,,Scattered Clouds,100,2013-03-05 12:16:00
8:16 AM,20.7,17.6,88,30.03,10.0,East,8.1,-,N/A,,Overcast,100,2013-03-05 13:16:00
8:35 AM,21.4,18.5,89,30.03,10.0,East,5.8,-,N/A,,Overcast,90,2013-03-05 13:35:00
8:56 AM,23.0,19.4,86,30.03,10.0,East,8.1,18.4,N/A,,Overcast,100,2013-03-05 13:56:00
9:16 AM,23.9,19.4,83,30.02,10.0,East,10.4,-,N/A,,Overcast,100,2013-03-05 14:16:00
9:35 AM,24.6,19.4,81,30.02,10.0,ESE,11.5,-,N/A,,Overcast,110,2013-03-05 14:35:00
9:56 AM,25.7,19.4,77,30.01,10.0,ESE,6.9,-,N/A,,Mostly Cloudy,120,2013-03-05 14:56:00
10:16 AM,26.4,19.4,75,30.01,10.0,East,12.7,16.1,N/A,,Scattered Clouds,100,2013-03-05 15:16:00
10:35 AM,27.3,20.1,74,29.99,10.0,East,6.9,18.4,N/A,,Scattered Clouds,100,2013-03-05 15:35:00
10:56 AM,28.4,20.1,71,29.99,10.0,East,8.1,-,N/A,,Scattered Clouds,100,2013-03-05 15:56:00
11:16 AM,29.3,20.7,70,29.98,7.0,East,10.4,16.1,N/A,,Scattered Clouds,100,2013-03-05 16:16:00
11:35 AM,30.4,20.7,67,29.96,7.0,East,11.5,17.3,N/A,,Clear,80,2013-03-05 16:35:00
11:56 AM,31.5,21.2,66,29.96,10.0,East,10.4,-,N/A,,Clear,80,2013-03-05 16:56:00
12:16 PM,32.0,21.4,65,29.94,10.0,East,9.2,-,N/A,,Clear,80,2013-03-05 17:16:00
12:35 PM,32.9,21.0,62,29.94,10.0,East,10.4,-,N/A,,Clear,80,2013-03-05 17:35:00
12:56 PM,33.8,21.2,60,29.93,10.0,East,10.4,17.3,N/A,,Clear,90,2013-03-05 17:56:00
1:16 PM,34.2,21.2,59,29.92,10.0,East,11.5,16.1,N/A,,Clear,80,2013-03-05 18:16:00
1:35 PM,34.9,19.6,54,29.90,10.0,East,13.8,19.6,N/A,,Clear,80,2013-03-05 18:35:00
1:56 PM,34.9,20.3,55,29.88,10.0,ENE,11.5,20.7,N/A,,Clear,70,2013-03-05 18:56:00
2:16 PM,35.6,20.1,53,29.88,10.0,East,10.4,-,N/A,,Clear,80,2013-03-05 19:16:00
2:35 PM,36.0,21.0,55,29.87,10.0,ENE,13.8,-,N/A,,Clear,60,2013-03-05 19:35:00
2:56 PM,35.6,21.7,57,29.86,10.0,ENE,13.8,-,N/A,,Clear,70,2013-03-05 19:56:00
3:15 PM,35.4,21.9,58,29.84,10.0,ENE,16.1,20.7,N/A,,Scattered Clouds,60,2013-03-05 20:15:00
3:36 PM,35.2,20.8,56,29.84,10.0,ENE,12.7,-,N/A,,Mostly Cloudy,70,2013-03-05 20:36:00
3:56 PM,35.4,21.2,56,29.83,10.0,ENE,13.8,-,N/A,,Overcast,70,2013-03-05 20:56:00
4:15 PM,35.6,21.9,58,29.83,10.0,ENE,15.0,20.7,N/A,,Overcast,60,2013-03-05 21:15:00
4:36 PM,35.1,21.9,59,29.81,10.0,ENE,11.5,18.4,N/A,,Mostly Cloudy,70,2013-03-05 21:36:00
4:56 PM,35.2,22.1,59,29.81,10.0,ENE,10.4,-,N/A,,Clear,70,2013-03-05 21:56:00
5:15 PM,35.6,22.5,59,29.81,10.0,ENE,9.2,-,N/A,,Clear,60,2013-03-05 22:15:00
5:36 PM,34.3,23.9,66,29.81,10.0,NE,15.0,20.7,N/A,,Scattered Clouds,50,2013-03-05 22:36:00
5:56 PM,32.9,24.4,71,29.82,10.0,NE,11.5,-,N/A,,Mostly Cloudy,50,2013-03-05 22:56:00
6:15 PM,32.0,23.9,72,29.83,10.0,NE,12.7,20.7,N/A,,Overcast,50,2013-03-05 23:15:00
6:36 PM,31.8,23.4,71,29.82,10.0,NE,15.0,20.7,N/A,,Overcast,40,2013-03-05 23:36:00
6:56 PM,31.5,23.0,71,29.83,10.0,NE,13.8,21.9,N/A,,Overcast,40,2013-03-05 23:56:00
7:15 PM,31.1,22.8,71,29.84,10.0,NE,11.5,19.6,N/A,,Overcast,40,2013-03-06 00:15:00
7:36 PM,30.6,22.6,72,29.85,10.0,NE,12.7,21.9,N/A,,Overcast,50,2013-03-06 00:36:00
7:56 PM,30.2,23.0,75,29.84,10.0,NNE,13.8,19.6,N/A,,Overcast,30,2013-03-06 00:56:00
8:15 PM,29.7,22.8,76,29.84,10.0,NE,15.0,-,N/A,,Overcast,40,2013-03-06 01:15:00
8:36 PM,28.9,22.6,77,29.84,10.0,NNE,16.1,21.9,N/A,,Overcast,30,2013-03-06 01:36:00
8:56 PM,28.2,22.6,80,29.84,10.0,NE,17.3,23.0,N/A,,Overcast,40,2013-03-06 01:56:00
9:15 PM,27.5,22.1,80,29.85,10.0,NNE,13.8,24.2,N/A,,Overcast,30,2013-03-06 02:15:00
9:36 PM,27.0,22.1,82,29.85,10.0,NNE,15.0,24.2,N/A,,Overcast,30,2013-03-06 02:36:00
9:56 PM,26.6,22.1,83,29.86,10.0,NE,16.1,20.7,N/A,,Overcast,40,2013-03-06 02:56:00
10:16 PM,26.4,21.7,82,29.86,10.0,NNE,15.0,19.6,N/A,,Overcast,30,2013-03-06 03:16:00
10:36 PM,26.6,21.9,82,29.86,10.0,NNE,13.8,-,N/A,,Overcast,30,2013-03-06 03:36:00
10:56 PM,27.0,22.1,82,29.86,10.0,NNE,13.8,17.3,N/A,,Overcast,30,2013-03-06 03:56:00
11:16 PM,27.1,22.5,83,29.86,10.0,NNE,13.8,20.7,N/A,,Overcast,30,2013-03-06 04:16:00
11:36 PM,27.3,22.6,83,29.86,10.0,NNE,12.7,20.7,N/A,,Overcast,30,2013-03-06 04:36:00
11:55 PM,27.5,23.0,83,29.86,10.0,NNE,12.7,18.4,N/A,,Overcast,20,2013-03-06 04:55:00